Weather History for Charlottetown, PE

Change the Weather History Date:

Monday, April 8, 2013

  Actual Average Record
Temperature  
Mean Temperature 39 °F -  
Max Temperature 48 °F 47 °F 50 °F (1999)
Min Temperature 30 °F 32 °F 17 °F (2003)
Degree Days  
Heating Degree Days 26    
Moisture  
Dew Point 32 °F    
Average Humidity 84    
Maximum Humidity 100    
Minimum Humidity 55    
Precipitation  
Precipitation 0.01 in 0.12 in - ()
Sea Level Pressure  
Sea Level Pressure 30.01 in    
Wind  
Wind Speed 10 mph ()    
Max Wind Speed 16 mph    
Max Gust Speed 21 mph    
Visibility 12.9 miles    
Events Fog , Rain    
Averages and records for this station are not official NWS values.
T = Trace of Precipitation, MM = Missing Value Source: Averaged Metar Reports

Daily Weather History Graph

Daily Weather History Graph

Search for Another Location

Airport:

Trip Planner

Search our weather history database for the weather conditions in past years. The results will help you decide how hot, cold, wet, or windy it might be!

Date:

Astronomy

Apr. 08, 2013 Rise Set
Actual Time 6:38 AM ADT 7:50 PM ADT
Civil Twilight 6:07 AM ADT 8:21 PM ADT
Nautical Twilight 5:30 AM ADT 8:59 PM ADT
Astronomical Twilight 4:51 AM ADT 9:38 PM ADT
Moon 5:31 AM ADT (4/8) 6:17 PM ADT (4/8)
Length of Visible Light 14h 14m
Length of Day
13h 12m
Waning Crescent, 3% of the Moon is Illuminated
Apr 8
Waning Crescent
Apr 10
New
Apr 18
First Quarter
Apr 25
Full
May 2
Last Quarter

Hourly Weather History & Observations

Time (ADT) Temp. Windchill Dew Point Humidity Pressure Visibility Wind Dir Wind Speed Gust Speed Precip Events Conditions
12:00 AM 33.8 °F 28.6 °F 21.2 °F 60% 30.09 in 15.0 mi South 5.8 mph - N/A   Overcast
1:00 AM 33.8 °F 24.3 °F 21.2 °F 60% 30.05 in 15.0 mi SSE 13.8 mph - N/A   Overcast
2:00 AM 33.8 °F 24.3 °F 23.0 °F 65% 30.05 in 15.0 mi South 13.8 mph - N/A   Overcast
3:00 AM 34 °F - 24 °F 55% 30.03 in 15 mi SSE 12.7 mph - -   Overcast
4:00 AM 33.8 °F 24.3 °F 24.8 °F 70% 29.99 in 15.0 mi South 13.8 mph - N/A   Overcast
5:00 AM 33.8 °F 23.5 °F 26.6 °F 75% 29.97 in 15.0 mi South 16.1 mph - N/A   Overcast
6:00 AM 33.8 °F 24.8 °F 28.4 °F 81% 29.96 in 15.0 mi South 12.7 mph - N/A   Overcast
7:00 AM 33.8 °F 24.8 °F 28.4 °F 81% 29.95 in 15.0 mi South 12.7 mph - N/A   Overcast
8:00 AM 35.6 °F 27.5 °F 30.2 °F 81% 29.95 in 15.0 mi South 11.5 mph 17.3 mph N/A Rain Light Rain Showers
9:00 AM 37 °F - 33 °F 79% 29.94 in 15 mi South 12.7 mph - - Rain Light Rain Showers
9:00 AM 37.4 °F 29.3 °F 32.0 °F 81% 29.94 in 15.0 mi South 12.7 mph 19.6 mph N/A Rain Light Rain Showers
10:00 AM 39.2 °F 31.6 °F 33.8 °F 81% 29.94 in 15.0 mi SSW 12.7 mph - N/A Rain Light Rain Showers
11:00 AM 41.0 °F 34.3 °F 37.4 °F 87% 29.94 in 15.0 mi SSW 11.5 mph - N/A Rain Light Rain Showers
11:49 AM 41.0 °F 36.4 °F 37.4 °F 87% 29.94 in 15.0 mi SSW 6.9 mph - N/A   Overcast
12:00 PM 41.0 °F 35.8 °F 37.4 °F 87% 29.94 in 15.0 mi SSW 8.1 mph - N/A   Overcast
1:00 PM 42.8 °F 37.5 °F 39.2 °F 87% 29.93 in 15.0 mi SSW 9.2 mph - N/A   Overcast
1:47 PM 46.4 °F 40.7 °F 41.0 °F 81% 29.93 in 15.0 mi West 12.7 mph - N/A   Mostly Cloudy
2:00 PM 48.2 °F - 41.0 °F 76% 29.93 in 15.0 mi West 9.2 mph - N/A   Mostly Cloudy
3:00 PM 47 °F - 40 °F 69% 29.95 in 15 mi WNW 9.2 mph - -   Partly Cloudy
3:00 PM 46.4 °F 41.9 °F 39.2 °F 76% 29.95 in 15.0 mi WNW 9.2 mph - N/A   Overcast
3:50 PM 42.8 °F 36.6 °F 39.2 °F 87% 29.97 in 15.0 mi NNW 11.5 mph 18.4 mph N/A   Overcast
4:00 PM 41.0 °F 34.3 °F 37.4 °F 87% 29.98 in 15.0 mi NNW 11.5 mph 20.7 mph N/A   Overcast
5:00 PM 37.4 °F 29.8 °F 35.6 °F 93% 30.00 in 12.0 mi NNW 11.5 mph - N/A   Overcast
5:41 PM 37.4 °F 30.3 °F 33.8 °F 87% 30.03 in 15.0 mi NNW 10.4 mph - N/A   Overcast
6:00 PM 37.4 °F 30.8 °F 33.8 °F 87% 30.03 in 15.0 mi NNW 9.2 mph - N/A   Mostly Cloudy
6:25 PM 35.6 °F 28.0 °F 33.8 °F 93% 30.04 in 15.0 mi North 10.4 mph - N/A   Mostly Cloudy
7:00 PM 33.8 °F 26.4 °F 32.0 °F 93% 30.04 in 15.0 mi North 9.2 mph - N/A   Mostly Cloudy
7:44 PM 33.8 °F 28.6 °F 32.0 °F 93% 30.05 in 15.0 mi North 5.8 mph - N/A   Overcast
8:00 PM 32.0 °F 24.2 °F 32.0 °F 100% 30.05 in 15.0 mi NNW 9.2 mph - N/A   Overcast
9:00 PM 31 °F - 31 °F 100% 30.07 in 12 mi NNW 5.8 mph - -   Overcast
9:00 PM 32.0 °F 26.4 °F 32.0 °F 100% 30.07 in 12.0 mi NNW 5.8 mph - N/A   Overcast
9:24 PM 30.2 °F 23.4 °F 30.2 °F 100% 30.09 in 5.0 mi NNW 6.9 mph - N/A   Overcast
9:54 PM 30.2 °F 21.3 °F 30.2 °F 100% 30.11 in 1.0 mi NNW 10.4 mph - N/A   Overcast
10:00 PM 30.2 °F 23.4 °F 30.2 °F 100% 30.12 in 0.8 mi NNW 6.9 mph - N/A   Mist
10:41 PM 30.2 °F 21.9 °F 30.2 °F 100% 30.13 in 0.5 mi NNW 9.2 mph - N/A Fog Light Freezing Fog
11:00 PM 30.2 °F 23.4 °F 30.2 °F 100% 30.14 in 0.5 mi NNW 6.9 mph - N/A Fog Light Freezing Fog